This demonstration page uses our WeatherBlox Daily Observations layout. Learn more.

Left ArrowRight Arrow

40.92501, -98.34201

Hourly Observations for July 21, 2021

Temp ( °F °C ) Dew Point ( °F °C ) Humidity (%) Winds ( mph kmh ) Pressure ( in mb ) Visibility ( mi km ) Precip ( " mm )
12:53 am 00:53 Clear 71 21.7 63 17.2 76 76 SE 7 11 30.10 1019 10 16 0.00 0.00
1:53 am 01:53 Clear 69 20.6 63 17.2 81 81 SSE 7 11 30.10 1019 9 14 0.00 0.00
2:53 am 02:53 Mostly Clear 69 20.6 63 17.2 81 81 S 10 17 30.09 1019 8 13 0.00 0.00
3:53 am 03:53 Clear 69 20.6 62 16.7 78 78 S 12 19 30.09 1019 8 13 0.00 0.00
4:53 am 04:53 Clear 68 20 62 16.7 81 81 S 9 15 30.08 1019 8 13 0.00 0.00
5:53 am 05:53 Clear 67 19.4 61 16.1 81 81 S 9 15 30.10 1019 7 11 0.00 0.00
6:53 am 06:53 Hazy 66 18.9 61 16.1 84 84 S 9 15 30.10 1019 5 8 0.00 0.00
7:53 am 07:53 Sunny 70 21.1 62 16.7 76 76 S 10 17 30.11 1020 7 11 0.00 0.00
8:53 am 08:53 Sunny 74 23.3 62 16.7 67 67 SSW 12 19 30.11 1020 7 11 0.00 0.00
9:53 am 09:53 Sunny 78 25.6 63 17.2 60 60 SSW 14 22 30.11 1020 7 11 0.00 0.00
10:53 am 10:53 Sunny 81 27.2 63 17.2 54 54 SSW 16 26 30.10 1019 8 13 0.00 0.00
11:53 am 11:53 Sunny 80 26.7 62 16.7 54 54 SSW 14 22 30.10 1019 8 13 0.00 0.00
12:53 pm 12:53 Sunny 80 26.7 63 17.2 56 56 S 13 20 30.09 1019 8 13 0.00 0.00
1:53 pm 13:53 Sunny 83 28.3 64 17.8 53 53 S 14 22 30.08 1019 9 14 0.00 0.00
2:53 pm 14:53 Mostly Sunny 85 29.4 64 17.8 50 50 S 18 30 30.06 1018 8 13 0.00 0.00
3:53 pm 15:53 Partly Cloudy 85 29.4 63 17.2 48 48 S 16 26 30.05 1018 9 14 0.00 0.00
4:53 pm 16:53 Mostly Sunny 85 29.4 61 16.1 45 45 S 15 24 30.04 1017 8 13 0.00 0.00
5:53 pm 17:53 Sunny 83 28.3 60 15.6 46 46 S 15 24 30.03 1017 8 13 0.00 0.00
6:53 pm 18:53 Sunny 81 27.2 64 17.8 57 57 SSE 14 22 30.02 1017 7 11 0.00 0.00
7:53 pm 19:53 Hazy 79 26.1 65 18.3 62 62 SSE 8 13 30.02 1017 6 10 0.00 0.00
8:53 pm 20:53 Hazy 76 24.4 63 17.2 64 64 SSE 8 13 30.03 1017 6 10 0.00 0.00
9:53 pm 21:53 Clear 74 23.3 62 16.7 67 67 SSE 9 15 30.04 1017 7 11 0.00 0.00
10:53 pm 22:53 Clear 74 23.3 62 16.7 67 67 SSE 12 19 30.04 1017 7 11 0.00 0.00
11:53 pm 23:53 Clear 72 22.2 61 16.1 68 68 S 12 19 30.05 1018 7 11 0.00 0.00

Powered by AerisWeather